Regional Weather Roundup
Issued by NWS Cleveland, OH

Home | Current Version | Previous Version | Text Only | Print | Product List | Glossary Off
Versions: 1 2 3 4 5 6 7 8 9 10 11 12 13 14 15 16 17 18 19 20 21 22 23 24 25 26 27 28 29 30 31 32 33 34 35 36 37 38 39 40 41 42 43 44 45 46 47 48 49 50

000
ASUS41 KCLE 180012
RWRCLE
OHIO REGIONAL WEATHER ROUNDUP
NATIONAL WEATHER SERVICE WILMINGTON, OH
700 PM EST SUN DEC 17 2017

NOTE: "FAIR" INDICATES FEW OR NO CLOUDS BELOW 12,000 FEET WITH NO
SIGNIFICANT WEATHER AND/OR OBSTRUCTIONS TO VISIBILITY.

OHZ001>008-015>018-024>027-034-035-043-044-180100-
   NORTHWEST OHIO

CITY           SKY/WX    TMP DP  RH WIND       PRES   REMARKS
DEFIANCE       CLOUDY    33  31  92 E3        30.05S FOG
FINDLAY        CLOUDY    38  33  82 S9        30.05S
TOLEDO EXPRESS CLOUDY    33  32  96 CALM      30.05F
TOLEDO EXEC    CLOUDY    33  30  88 CALM      30.07R FOG
LIMA           CLOUDY    37  35  92 S8        30.06R
$$

OHZ009>014-019>023-028>033-038-089-180100-
   NORTHEAST OHIO

CITY           SKY/WX    TMP DP  RH WIND       PRES   REMARKS
CLE-HOPKINS    CLOUDY    37  33  85 S6        30.09S
CLE-LAKEFRONT  CLOUDY    38  31  76 S7        30.07S
CUY CO. ARPT   CLOUDY    39  30  70 S6        30.08R
LORAIN-ELYRIA  CLOUDY    36  29  75 S5        30.07S
ASHTABULA      CLOUDY    33  29  85 SE3       30.08S
AKRON-CANTON   CLOUDY    36  31  82 S9        30.07F
WOOSTER        CLOUDY    34  32  92 S7        30.07F WCI  28
MANSFIELD      CLOUDY    36  34  92 S6        30.07R
YOUNGSTOWN     CLOUDY    36  31  82 S7        30.06F
$$

OHZ042-051>053-060>062-070>072-077>081-180100-
  SOUTHWEST OHIO

CITY           SKY/WX    TMP DP  RH WIND       PRES   REMARKS
CINC-COVINGTON CLOUDY    44  33  65 S7        30.09S
CINC-LUNKEN    CLOUDY    43  33  68 SW3       30.12S
HAMILTON       CLOUDY    45  33  63 CALM      30.11S
DAYTON         CLOUDY    40  36  86 S7        30.09R
WRIGHT-PAT AFB CLOUDY    40  37  89 S5        30.09R
DAYTON GENERAL CLOUDY    42  32  67 S7        30.08R
WILMINGTON     CLOUDY    40  33  76 S5        30.09S
$$

OHZ036-037-039>041-045>050-054>059-063>069-073>076-082>088-180100-
  CENTRAL AND SOUTHEAST OHIO

CITY           SKY/WX    TMP DP  RH WIND       PRES   REMARKS
COLUMBUS       CLOUDY    40  34  79 SE5       30.10R
OSU AIRPORT    CLOUDY    40  35  83 S6        30.09R
BOLTON FIELD   CLOUDY    37  34  87 S5        30.10R
RICKENBACK AFB CLOUDY    38  32  78 SE3       30.10R
NEWARK         CLOUDY    38  32  79 S5        30.10R
MARION         CLOUDY    36  34  92 S8        30.08R FOG
LANCASTER      CLOUDY    39  32  76 CALM      30.10S
ZANESVILLE     CLOUDY    38  31  76 SE3       30.10F
NEW PHILLY     CLOUDY    36  34  92 CALM      30.11F
$$



USA.gov is the U.S. government's official web portal to all federal, state and local government web resources and services.